Year,Month,Day,Hour,Minute,Value (Times are PST for temperature in C)
2018,08,05,00,00,15.00
2018,08,05,00,01,15.00
2018,08,05,00,02,15.00
2018,08,05,00,03,15.00
2018,08,05,00,04,15.00
2018,08,05,00,05,15.00
2018,08,05,00,06,15.00
2018,08,05,00,07,15.00
2018,08,05,00,08,15.00
2018,08,05,00,09,14.90
2018,08,05,00,10,14.90
2018,08,05,00,11,14.90
2018,08,05,00,12,14.90
2018,08,05,00,13,14.90
2018,08,05,00,14,14.90
2018,08,05,00,15,14.80
2018,08,05,00,16,14.80
2018,08,05,00,17,14.80
2018,08,05,00,18,14.80
2018,08,05,00,19,14.80
2018,08,05,00,20,14.80
2018,08,05,00,21,14.80
2018,08,05,00,22,14.80
2018,08,05,00,23,14.70
2018,08,05,00,24,14.70
2018,08,05,00,25,14.70
2018,08,05,00,26,14.70
2018,08,05,00,27,14.70
2018,08,05,00,28,14.70
2018,08,05,00,29,14.70
2018,08,05,00,30,14.70
2018,08,05,00,31,14.70
2018,08,05,00,32,14.70
2018,08,05,00,33,14.70
2018,08,05,00,34,14.60
2018,08,05,00,35,14.60
2018,08,05,00,36,14.60
2018,08,05,00,37,14.60
2018,08,05,00,38,14.60
2018,08,05,00,39,14.60
2018,08,05,00,40,14.60
2018,08,05,00,41,14.60
2018,08,05,00,42,14.60
2018,08,05,00,43,14.60
2018,08,05,00,44,14.60
2018,08,05,00,45,14.60
2018,08,05,00,46,14.60
2018,08,05,00,47,14.50
2018,08,05,00,48,14.50
2018,08,05,00,49,14.50
2018,08,05,00,50,14.50
2018,08,05,00,51,14.50
2018,08,05,00,52,14.50
2018,08,05,00,53,14.50
2018,08,05,00,54,14.40
2018,08,05,00,55,14.40
2018,08,05,00,56,14.40
2018,08,05,00,57,14.40
2018,08,05,00,58,14.40
2018,08,05,00,59,14.40
2018,08,05,01,00,14.40
2018,08,05,01,01,14.40
2018,08,05,01,02,14.40
2018,08,05,01,03,14.40
2018,08,05,01,04,14.40
2018,08,05,01,05,14.30
2018,08,05,01,06,14.30
2018,08,05,01,07,14.30
2018,08,05,01,08,14.30
2018,08,05,01,09,14.30
2018,08,05,01,10,14.30
2018,08,05,01,11,14.30
2018,08,05,01,12,14.30
2018,08,05,01,13,14.30
2018,08,05,01,14,14.30
2018,08,05,01,15,14.30
2018,08,05,01,16,14.20
2018,08,05,01,17,14.20
2018,08,05,01,18,14.20
2018,08,05,01,19,14.20
2018,08,05,01,20,14.20
2018,08,05,01,21,14.20
2018,08,05,01,22,14.20
2018,08,05,01,23,14.20
2018,08,05,01,24,14.10
2018,08,05,01,25,14.10
2018,08,05,01,26,14.10
2018,08,05,01,27,14.10
2018,08,05,01,28,14.10
2018,08,05,01,29,14.10
2018,08,05,01,30,14.10
2018,08,05,01,31,14.10
2018,08,05,01,32,14.10
2018,08,05,01,33,14.10
2018,08,05,01,34,14.10
2018,08,05,01,35,14.10
2018,08,05,01,36,14.10
2018,08,05,01,37,14.10
2018,08,05,01,38,14.10
2018,08,05,01,39,14.10
2018,08,05,01,40,14.10
2018,08,05,01,41,14.10
2018,08,05,01,42,14.10
2018,08,05,01,43,14.10
2018,08,05,01,44,14.10
2018,08,05,01,45,14.10
2018,08,05,01,46,14.10
2018,08,05,01,47,14.10
2018,08,05,01,48,14.10
2018,08,05,01,49,14.10
2018,08,05,01,50,14.00
2018,08,05,01,51,14.00
2018,08,05,01,52,14.00
2018,08,05,01,53,14.00
2018,08,05,01,54,14.00
2018,08,05,01,55,14.00
2018,08,05,01,56,14.00
2018,08,05,01,57,14.00
2018,08,05,01,58,14.00
2018,08,05,01,59,14.00
2018,08,05,02,00,14.00
2018,08,05,02,01,14.00
2018,08,05,02,02,13.90
2018,08,05,02,03,13.90
2018,08,05,02,04,13.90
2018,08,05,02,05,13.90
2018,08,05,02,06,13.90
2018,08,05,02,07,13.90
2018,08,05,02,08,13.90
2018,08,05,02,09,13.90
2018,08,05,02,10,13.90
2018,08,05,02,11,13.90
2018,08,05,02,12,13.80
2018,08,05,02,13,13.80
2018,08,05,02,14,13.80
2018,08,05,02,15,13.80
2018,08,05,02,16,13.80
2018,08,05,02,17,13.80
2018,08,05,02,18,13.80
2018,08,05,02,19,13.70
2018,08,05,02,20,13.70
2018,08,05,02,21,13.70
2018,08,05,02,22,13.70
2018,08,05,02,23,13.70
2018,08,05,02,24,13.70
2018,08,05,02,25,13.70
2018,08,05,02,26,13.70
2018,08,05,02,27,13.70
2018,08,05,02,28,13.70
2018,08,05,02,29,13.70
2018,08,05,02,30,13.70
2018,08,05,02,31,13.60
2018,08,05,02,32,13.60
2018,08,05,02,33,13.60
2018,08,05,02,34,13.60
2018,08,05,02,35,13.60
2018,08,05,02,36,13.60
2018,08,05,02,37,13.60
2018,08,05,02,38,13.50
2018,08,05,02,39,13.50
2018,08,05,02,40,13.50
2018,08,05,02,41,13.50
2018,08,05,02,42,13.40
2018,08,05,02,43,13.40
2018,08,05,02,44,13.40
2018,08,05,02,45,13.40
2018,08,05,02,46,13.40
2018,08,05,02,47,13.40
2018,08,05,02,48,13.40
2018,08,05,02,49,13.40
2018,08,05,02,50,13.40
2018,08,05,02,51,13.40
2018,08,05,02,52,13.30
2018,08,05,02,53,13.30
2018,08,05,02,54,13.30
2018,08,05,02,55,13.30
2018,08,05,02,56,13.30
2018,08,05,02,57,13.30
2018,08,05,02,58,13.30
2018,08,05,02,59,13.30
2018,08,05,03,00,13.30
2018,08,05,03,01,13.30
2018,08,05,03,02,13.30
2018,08,05,03,03,13.30
2018,08,05,03,04,13.30
2018,08,05,03,05,13.20
2018,08,05,03,06,13.20
2018,08,05,03,07,13.20
2018,08,05,03,08,13.20
2018,08,05,03,09,13.20
2018,08,05,03,10,13.20
2018,08,05,03,11,13.20
2018,08,05,03,12,13.20
2018,08,05,03,13,13.20
2018,08,05,03,14,13.20
2018,08,05,03,15,13.20
2018,08,05,03,16,13.20
2018,08,05,03,17,13.20
2018,08,05,03,18,13.10
2018,08,05,03,19,13.10
2018,08,05,03,20,13.10
2018,08,05,03,21,13.10
2018,08,05,03,22,13.10
2018,08,05,03,23,13.10
2018,08,05,03,24,13.10
2018,08,05,03,25,13.10
2018,08,05,03,26,13.10
2018,08,05,03,27,13.00
2018,08,05,03,28,13.00
2018,08,05,03,29,13.00
2018,08,05,03,30,12.90
2018,08,05,03,31,12.90
2018,08,05,03,32,12.90
2018,08,05,03,33,12.90
2018,08,05,03,34,12.90
2018,08,05,03,35,12.90
2018,08,05,03,36,12.90
2018,08,05,03,37,12.80
2018,08,05,03,38,12.80
2018,08,05,03,39,12.80
2018,08,05,03,40,12.80
2018,08,05,03,41,12.80
2018,08,05,03,42,12.80
2018,08,05,03,43,12.80
2018,08,05,03,44,12.80
2018,08,05,03,45,12.80
2018,08,05,03,46,12.80
2018,08,05,03,47,12.70
2018,08,05,03,48,12.70
2018,08,05,03,49,12.70
2018,08,05,03,50,12.70
2018,08,05,03,51,12.70
2018,08,05,03,52,12.70
2018,08,05,03,53,12.70
2018,08,05,03,54,12.70
2018,08,05,03,55,12.70
2018,08,05,03,56,12.70
2018,08,05,03,57,12.70
2018,08,05,03,58,12.70
2018,08,05,03,59,12.60
2018,08,05,04,00,12.60
2018,08,05,04,01,12.60
2018,08,05,04,02,12.60
2018,08,05,04,03,12.60
2018,08,05,04,04,12.60
2018,08,05,04,05,12.60
2018,08,05,04,06,12.60
2018,08,05,04,07,12.60
2018,08,05,04,08,12.60
2018,08,05,04,09,12.50
2018,08,05,04,10,12.50
2018,08,05,04,11,12.50
2018,08,05,04,12,12.50
2018,08,05,04,13,12.50
2018,08,05,04,14,12.50
2018,08,05,04,15,12.50
2018,08,05,04,16,12.50
2018,08,05,04,17,12.40
2018,08,05,04,18,12.40
2018,08,05,04,19,12.40
2018,08,05,04,20,12.40
2018,08,05,04,21,12.40
2018,08,05,04,22,12.40
2018,08,05,04,23,12.40
2018,08,05,04,24,12.40
2018,08,05,04,25,12.40
2018,08,05,04,26,12.40
2018,08,05,04,27,12.40
2018,08,05,04,28,12.40
2018,08,05,04,29,12.40
2018,08,05,04,30,12.40
2018,08,05,04,31,12.30
2018,08,05,04,32,12.30
2018,08,05,04,33,12.30
2018,08,05,04,34,12.30
2018,08,05,04,35,12.30
2018,08,05,04,36,12.30
2018,08,05,04,37,12.30
2018,08,05,04,38,12.30
2018,08,05,04,39,12.30
2018,08,05,04,40,12.30
2018,08,05,04,41,12.30
2018,08,05,04,42,12.30
2018,08,05,04,43,12.30
2018,08,05,04,44,12.30
2018,08,05,04,45,12.30
2018,08,05,04,46,12.30
2018,08,05,04,47,12.30
2018,08,05,04,48,12.30
2018,08,05,04,49,12.20
2018,08,05,04,50,12.20
2018,08,05,04,51,12.20
2018,08,05,04,52,12.20
2018,08,05,04,53,12.20
2018,08,05,04,54,12.20
2018,08,05,04,55,12.20
2018,08,05,04,56,12.20
2018,08,05,04,57,12.20
2018,08,05,04,58,12.20
2018,08,05,04,59,12.20
2018,08,05,05,00,12.20
2018,08,05,05,01,12.20
2018,08,05,05,02,12.20
2018,08,05,05,03,12.20
2018,08,05,05,04,12.20
2018,08,05,05,05,12.20
2018,08,05,05,06,12.20
2018,08,05,05,07,12.20
2018,08,05,05,08,12.20
2018,08,05,05,09,12.20
2018,08,05,05,10,12.20
2018,08,05,05,11,12.10
2018,08,05,05,12,12.10
2018,08,05,05,13,12.10
2018,08,05,05,14,12.10
2018,08,05,05,15,12.10
2018,08,05,05,16,12.10
2018,08,05,05,17,12.10
2018,08,05,05,18,12.10
2018,08,05,05,19,12.10
2018,08,05,05,20,12.10
2018,08,05,05,21,12.10
2018,08,05,05,22,12.10
2018,08,05,05,23,12.10
2018,08,05,05,24,12.00
2018,08,05,05,25,12.00
2018,08,05,05,26,12.00
2018,08,05,05,27,12.00
2018,08,05,05,28,12.00
2018,08,05,05,29,12.00
2018,08,05,05,30,11.90
2018,08,05,05,31,11.90
2018,08,05,05,32,11.90
2018,08,05,05,33,11.90
2018,08,05,05,34,11.90
2018,08,05,05,35,11.90
2018,08,05,05,36,11.90
2018,08,05,05,37,11.90
2018,08,05,05,38,11.90
2018,08,05,05,39,11.90
2018,08,05,05,40,11.90
2018,08,05,05,41,11.90
2018,08,05,05,42,11.90
2018,08,05,05,43,11.90
2018,08,05,05,44,11.90
2018,08,05,05,45,11.90
2018,08,05,05,46,11.90
2018,08,05,05,47,11.90
2018,08,05,05,48,11.90
2018,08,05,05,49,11.90
2018,08,05,05,50,11.80
2018,08,05,05,51,11.80
2018,08,05,05,52,11.80
2018,08,05,05,53,11.80
2018,08,05,05,54,11.80
2018,08,05,05,55,11.80
2018,08,05,05,56,11.80
2018,08,05,05,57,11.80
2018,08,05,05,58,11.80
2018,08,05,05,59,11.80
2018,08,05,06,00,11.80
2018,08,05,06,01,11.80
2018,08,05,06,02,11.80
2018,08,05,06,03,11.80
2018,08,05,06,04,11.80
2018,08,05,06,05,11.80
2018,08,05,06,06,11.80
2018,08,05,06,07,11.80
2018,08,05,06,08,11.80
2018,08,05,06,09,11.80
2018,08,05,06,10,11.80
2018,08,05,06,11,11.70
2018,08,05,06,12,11.70
2018,08,05,06,13,11.70
2018,08,05,06,14,11.70
2018,08,05,06,15,11.70
2018,08,05,06,16,11.70
2018,08,05,06,17,11.70
2018,08,05,06,18,11.70
2018,08,05,06,19,11.70
2018,08,05,06,20,11.70
2018,08,05,06,21,11.70
2018,08,05,06,22,11.70
2018,08,05,06,23,11.70
2018,08,05,06,24,11.70
2018,08,05,06,25,11.70
2018,08,05,06,26,11.70
2018,08,05,06,27,11.70
2018,08,05,06,28,11.70
2018,08,05,06,29,11.70
2018,08,05,06,30,11.70
2018,08,05,06,31,11.70
2018,08,05,06,32,11.70
2018,08,05,06,33,11.70
2018,08,05,06,34,11.70
2018,08,05,06,35,11.70
2018,08,05,06,36,11.70
2018,08,05,06,37,11.70
2018,08,05,06,38,11.70
2018,08,05,06,39,11.70
2018,08,05,06,40,11.80
2018,08,05,06,41,11.80
2018,08,05,06,42,11.80
2018,08,05,06,43,11.80
2018,08,05,06,44,11.80
2018,08,05,06,45,11.80
2018,08,05,06,46,11.80
2018,08,05,06,47,11.80
2018,08,05,06,48,11.80
2018,08,05,06,49,11.80
2018,08,05,06,50,11.90
2018,08,05,06,51,11.90
2018,08,05,06,52,11.90
2018,08,05,06,53,11.90
2018,08,05,06,54,11.90
2018,08,05,06,55,11.90
2018,08,05,06,56,11.90
2018,08,05,06,57,12.00
2018,08,05,06,58,12.00
2018,08,05,06,59,12.00
2018,08,05,07,00,12.00
2018,08,05,07,01,12.10
2018,08,05,07,02,12.10
2018,08,05,07,03,12.10
2018,08,05,07,04,12.10
2018,08,05,07,05,12.20
2018,08,05,07,06,12.20
2018,08,05,07,07,12.20
2018,08,05,07,08,12.20
2018,08,05,07,09,12.30
2018,08,05,07,10,12.30
2018,08,05,07,11,12.30
2018,08,05,07,12,12.30
2018,08,05,07,13,12.40
2018,08,05,07,14,12.40
2018,08,05,07,15,12.40
2018,08,05,07,16,12.50
2018,08,05,07,17,12.50
2018,08,05,07,18,12.50
2018,08,05,07,19,12.60
2018,08,05,07,20,12.60
2018,08,05,07,21,12.60
2018,08,05,07,22,12.60
2018,08,05,07,23,12.70
2018,08,05,07,24,12.70
2018,08,05,07,25,12.80
2018,08,05,07,26,12.80
2018,08,05,07,27,12.80
2018,08,05,07,28,12.80
2018,08,05,07,29,12.90
2018,08,05,07,30,12.90
2018,08,05,07,31,13.00
2018,08,05,07,32,13.00
2018,08,05,07,33,13.10
2018,08,05,07,34,13.10
2018,08,05,07,35,13.10
2018,08,05,07,36,13.20
2018,08,05,07,37,13.20
2018,08,05,07,38,13.30
2018,08,05,07,39,13.30
2018,08,05,07,40,13.40
2018,08,05,07,41,13.40
2018,08,05,07,42,13.50
2018,08,05,07,43,13.60
2018,08,05,07,44,13.60
2018,08,05,07,45,13.70
2018,08,05,07,46,13.80
2018,08,05,07,47,13.90
2018,08,05,07,48,13.90
2018,08,05,07,49,14.00
2018,08,05,07,50,14.10
2018,08,05,07,51,14.20
2018,08,05,07,52,14.40
2018,08,05,07,53,14.50
2018,08,05,07,54,14.60
2018,08,05,07,55,14.80
2018,08,05,07,56,14.90
2018,08,05,07,57,15.00
2018,08,05,07,58,15.00
2018,08,05,07,59,15.10
2018,08,05,08,00,15.20
2018,08,05,08,01,15.30
2018,08,05,08,02,15.40
2018,08,05,08,03,15.50
2018,08,05,08,04,15.70
2018,08,05,08,05,15.80
2018,08,05,08,06,16.00
2018,08,05,08,07,16.10
2018,08,05,08,08,16.20
2018,08,05,08,09,16.40
2018,08,05,08,10,16.50
2018,08,05,08,11,16.60
2018,08,05,08,12,16.80
2018,08,05,08,13,16.90
2018,08,05,08,14,17.10
2018,08,05,08,15,17.20
2018,08,05,08,16,17.40
2018,08,05,08,17,17.50
2018,08,05,08,18,17.70
2018,08,05,08,19,17.90
2018,08,05,08,20,18.00
2018,08,05,08,21,18.20
2018,08,05,08,22,18.30
2018,08,05,08,23,18.40
2018,08,05,08,24,18.50
2018,08,05,08,25,18.70
2018,08,05,08,26,18.80
2018,08,05,08,27,18.90
2018,08,05,08,28,19.10
2018,08,05,08,29,19.20
2018,08,05,08,30,19.30
2018,08,05,08,31,19.50
2018,08,05,08,32,19.60
2018,08,05,08,33,19.60
2018,08,05,08,34,19.70
2018,08,05,08,35,19.80
2018,08,05,08,36,19.80
2018,08,05,08,37,19.90
2018,08,05,08,38,19.90
2018,08,05,08,39,20.00
2018,08,05,08,40,20.00
2018,08,05,08,41,20.10
2018,08,05,08,42,20.20
2018,08,05,08,43,20.30
2018,08,05,08,44,20.30
2018,08,05,08,45,20.40
2018,08,05,08,46,20.50
2018,08,05,08,47,20.60
2018,08,05,08,48,20.70
2018,08,05,08,49,20.80
2018,08,05,08,50,20.90
2018,08,05,08,51,20.90
2018,08,05,08,52,20.90
2018,08,05,08,53,20.90
2018,08,05,08,54,20.80
2018,08,05,08,55,20.80
2018,08,05,08,56,20.80
2018,08,05,08,57,20.70
2018,08,05,08,58,20.70
2018,08,05,08,59,20.70
2018,08,05,09,00,20.60
2018,08,05,09,01,20.60
2018,08,05,09,02,20.60
2018,08,05,09,03,20.50
2018,08,05,09,04,20.50
2018,08,05,09,05,20.40
2018,08,05,09,06,20.40
2018,08,05,09,07,20.30
2018,08,05,09,08,20.30
2018,08,05,09,09,20.30
2018,08,05,09,10,20.30
2018,08,05,09,11,20.30
2018,08,05,09,12,20.30
2018,08,05,09,13,20.40
2018,08,05,09,14,20.40
2018,08,05,09,15,20.50
2018,08,05,09,16,20.60
2018,08,05,09,17,20.60
2018,08,05,09,18,20.70
2018,08,05,09,19,20.80
2018,08,05,09,20,20.90
2018,08,05,09,21,20.90
2018,08,05,09,22,21.00
2018,08,05,09,23,21.10
2018,08,05,09,24,21.20
2018,08,05,09,25,21.20
2018,08,05,09,26,21.20
2018,08,05,09,27,21.30
2018,08,05,09,28,21.30
2018,08,05,09,29,21.40
2018,08,05,09,30,21.40
2018,08,05,09,31,21.50
2018,08,05,09,32,21.50
2018,08,05,09,33,21.50
2018,08,05,09,34,21.50
2018,08,05,09,35,21.40
2018,08,05,09,36,21.40
2018,08,05,09,37,21.40
2018,08,05,09,38,21.40
2018,08,05,09,39,21.50
2018,08,05,09,40,21.50
2018,08,05,09,41,21.60
2018,08,05,09,42,21.60
2018,08,05,09,43,21.60
2018,08,05,09,44,21.60
2018,08,05,09,45,21.60
2018,08,05,09,46,21.70
2018,08,05,09,47,21.80
2018,08,05,09,48,21.80
2018,08,05,09,49,21.90
2018,08,05,09,50,21.90
2018,08,05,09,51,21.90
2018,08,05,09,52,22.00
2018,08,05,09,53,22.10
2018,08,05,09,54,22.10
2018,08,05,09,55,22.10
2018,08,05,09,56,22.10
2018,08,05,09,57,22.20
2018,08,05,09,58,22.20
2018,08,05,09,59,22.20
2018,08,05,10,00,22.20
2018,08,05,10,01,22.30
2018,08,05,10,02,22.30
2018,08,05,10,03,22.30
2018,08,05,10,04,22.30
2018,08,05,10,05,22.30
2018,08,05,10,06,22.30
2018,08,05,10,07,22.30
2018,08,05,10,08,22.30
2018,08,05,10,09,22.20
2018,08,05,10,10,22.20
2018,08,05,10,11,22.20
2018,08,05,10,12,22.20
2018,08,05,10,13,22.20
2018,08,05,10,14,22.30
2018,08,05,10,15,22.40
2018,08,05,10,16,22.40
2018,08,05,10,17,22.50
2018,08,05,10,18,22.50
2018,08,05,10,19,22.60
2018,08,05,10,20,22.70
2018,08,05,10,21,22.80
2018,08,05,10,22,22.90
2018,08,05,10,23,23.00
2018,08,05,10,24,23.00
2018,08,05,10,25,23.10
2018,08,05,10,26,23.10
2018,08,05,10,27,23.20
2018,08,05,10,28,23.30
2018,08,05,10,29,23.40
2018,08,05,10,30,23.50
2018,08,05,10,31,23.50
2018,08,05,10,32,23.40
2018,08,05,10,33,23.50
2018,08,05,10,34,23.50
2018,08,05,10,35,23.60
2018,08,05,10,36,23.60
2018,08,05,10,37,23.70
2018,08,05,10,38,23.70
2018,08,05,10,39,23.70
2018,08,05,10,40,23.70
2018,08,05,10,41,23.70
2018,08,05,10,42,23.60
2018,08,05,10,43,23.50
2018,08,05,10,44,23.30
2018,08,05,10,45,23.00
2018,08,05,10,46,22.80
2018,08,05,10,47,22.60
2018,08,05,10,48,22.50
2018,08,05,10,49,22.50
2018,08,05,10,50,22.50
2018,08,05,10,51,22.50
2018,08,05,10,52,22.40
2018,08,05,10,53,22.40
2018,08,05,10,54,22.40
2018,08,05,10,55,22.40
2018,08,05,10,56,22.40
2018,08,05,10,57,22.40
2018,08,05,10,58,22.50
2018,08,05,10,59,22.60
2018,08,05,11,00,22.70
2018,08,05,11,01,22.80
2018,08,05,11,02,22.80
2018,08,05,11,03,22.90
2018,08,05,11,04,23.00
2018,08,05,11,05,23.00
2018,08,05,11,06,23.00
2018,08,05,11,07,22.90
2018,08,05,11,08,22.80
2018,08,05,11,09,22.70
2018,08,05,11,10,22.60
2018,08,05,11,11,22.60
2018,08,05,11,12,22.60
2018,08,05,11,13,22.60
2018,08,05,11,14,22.60
2018,08,05,11,15,22.60
2018,08,05,11,16,22.70
2018,08,05,11,17,22.80
2018,08,05,11,18,23.00
2018,08,05,11,19,23.20
2018,08,05,11,20,23.30
2018,08,05,11,21,23.50
2018,08,05,11,22,23.70
2018,08,05,11,23,23.80
2018,08,05,11,24,23.80
2018,08,05,11,25,23.80
2018,08,05,11,26,23.80
2018,08,05,11,27,23.80
2018,08,05,11,28,23.70
2018,08,05,11,29,23.60
2018,08,05,11,30,23.60
2018,08,05,11,31,23.60
2018,08,05,11,32,23.70
2018,08,05,11,33,23.80
2018,08,05,11,34,23.90
2018,08,05,11,35,23.90
2018,08,05,11,36,24.00
2018,08,05,11,37,24.00
2018,08,05,11,38,24.10
2018,08,05,11,39,24.20
2018,08,05,11,40,24.30
2018,08,05,11,41,24.40
2018,08,05,11,42,24.50
2018,08,05,11,43,24.60
2018,08,05,11,44,24.50
2018,08,05,11,45,24.50
2018,08,05,11,46,24.40
2018,08,05,11,47,24.40
2018,08,05,11,48,24.40
2018,08,05,11,49,24.40
2018,08,05,11,50,24.50
2018,08,05,11,51,24.50
2018,08,05,11,52,24.60
2018,08,05,11,53,24.70
2018,08,05,11,54,24.80
2018,08,05,11,55,24.90
2018,08,05,11,56,25.00
2018,08,05,11,57,25.00
2018,08,05,11,58,25.00
2018,08,05,11,59,25.00
2018,08,05,12,00,25.00
2018,08,05,12,01,25.00
2018,08,05,12,02,25.10
2018,08,05,12,03,25.10
2018,08,05,12,04,25.10
2018,08,05,12,05,25.10
2018,08,05,12,06,25.10
2018,08,05,12,07,25.10
2018,08,05,12,08,25.20
2018,08,05,12,09,25.30
2018,08,05,12,10,25.40
2018,08,05,12,11,25.60
2018,08,05,12,12,25.60
2018,08,05,12,13,25.60
2018,08,05,12,14,25.60
2018,08,05,12,15,25.60
2018,08,05,12,16,25.70
2018,08,05,12,17,25.70
2018,08,05,12,18,25.70
2018,08,05,12,19,25.60
2018,08,05,12,20,25.60
2018,08,05,12,21,25.60
2018,08,05,12,22,25.50
2018,08,05,12,23,25.40
2018,08,05,12,24,25.30
2018,08,05,12,25,25.20
2018,08,05,12,26,25.10
2018,08,05,12,27,24.90
2018,08,05,12,28,24.80
2018,08,05,12,29,24.70
2018,08,05,12,30,24.60
2018,08,05,12,31,24.60
2018,08,05,12,32,24.80
2018,08,05,12,33,24.90
2018,08,05,12,34,25.00
2018,08,05,12,35,25.10
2018,08,05,12,36,25.20
2018,08,05,12,37,25.20
2018,08,05,12,38,25.30
2018,08,05,12,39,25.30
2018,08,05,12,40,25.30
2018,08,05,12,41,25.20
2018,08,05,12,42,25.10
2018,08,05,12,43,25.00
2018,08,05,12,44,25.00
2018,08,05,12,45,25.00
2018,08,05,12,46,25.10
2018,08,05,12,47,25.10
2018,08,05,12,48,25.20
2018,08,05,12,49,25.20
2018,08,05,12,50,25.20
2018,08,05,12,51,25.20
2018,08,05,12,52,25.10
2018,08,05,12,53,25.00
2018,08,05,12,54,24.90
2018,08,05,12,55,25.00
2018,08,05,12,56,25.10
2018,08,05,12,57,25.10
2018,08,05,12,58,25.20
2018,08,05,12,59,25.30
2018,08,05,13,00,25.20
2018,08,05,13,01,25.20
2018,08,05,13,02,25.20
2018,08,05,13,03,25.20
2018,08,05,13,04,25.20
2018,08,05,13,05,25.30
2018,08,05,13,06,25.40
2018,08,05,13,07,25.50
2018,08,05,13,08,25.50
2018,08,05,13,09,25.60
2018,08,05,13,10,25.60
2018,08,05,13,11,25.70
2018,08,05,13,12,25.70
2018,08,05,13,13,25.70
2018,08,05,13,14,25.70
2018,08,05,13,15,25.70
2018,08,05,13,16,25.70
2018,08,05,13,17,25.80
2018,08,05,13,18,25.90
2018,08,05,13,19,26.00
2018,08,05,13,20,26.10
2018,08,05,13,21,26.20
2018,08,05,13,22,26.20
2018,08,05,13,23,26.20
2018,08,05,13,24,26.10
2018,08,05,13,25,26.10
2018,08,05,13,26,26.10
2018,08,05,13,27,26.00
2018,08,05,13,28,25.90
2018,08,05,13,29,25.90
2018,08,05,13,30,25.90
2018,08,05,13,31,25.90
2018,08,05,13,32,25.90
2018,08,05,13,33,25.90
2018,08,05,13,34,25.90
2018,08,05,13,35,25.90
2018,08,05,13,36,25.80
2018,08,05,13,37,25.80
2018,08,05,13,38,25.90
2018,08,05,13,39,26.00
2018,08,05,13,40,26.10
2018,08,05,13,41,26.10
2018,08,05,13,42,26.10
2018,08,05,13,43,26.10
2018,08,05,13,44,26.10
2018,08,05,13,45,26.00
2018,08,05,13,46,25.90
2018,08,05,13,47,25.80
2018,08,05,13,48,25.60
2018,08,05,13,49,25.50
2018,08,05,13,50,25.50
2018,08,05,13,51,25.50
2018,08,05,13,52,25.60
2018,08,05,13,53,25.80
2018,08,05,13,54,25.90
2018,08,05,13,55,26.10
2018,08,05,13,56,26.20
2018,08,05,13,57,26.40
2018,08,05,13,58,26.50
2018,08,05,13,59,26.50
2018,08,05,14,00,26.40
2018,08,05,14,01,26.40
2018,08,05,14,02,26.40
2018,08,05,14,03,26.40
2018,08,05,14,04,26.40
2018,08,05,14,05,26.50
2018,08,05,14,06,26.50
2018,08,05,14,07,26.50
2018,08,05,14,08,26.40
2018,08,05,14,09,26.40
2018,08,05,14,10,26.40
2018,08,05,14,11,26.40
2018,08,05,14,12,26.40
2018,08,05,14,13,26.50
2018,08,05,14,14,26.50
2018,08,05,14,15,26.60
2018,08,05,14,16,26.70
2018,08,05,14,17,26.80
2018,08,05,14,18,26.80
2018,08,05,14,19,26.70
2018,08,05,14,20,26.70
2018,08,05,14,21,26.80
2018,08,05,14,22,26.90
2018,08,05,14,23,26.90
2018,08,05,14,24,27.00
2018,08,05,14,25,27.10
2018,08,05,14,26,27.00
2018,08,05,14,27,27.00
2018,08,05,14,28,26.90
2018,08,05,14,29,26.90
2018,08,05,14,30,26.70
2018,08,05,14,31,26.60
2018,08,05,14,32,26.40
2018,08,05,14,33,26.40
2018,08,05,14,34,26.40
2018,08,05,14,35,26.50
2018,08,05,14,36,26.50
2018,08,05,14,37,26.60
2018,08,05,14,38,26.60
2018,08,05,14,39,26.60
2018,08,05,14,40,26.60
2018,08,05,14,41,26.60
2018,08,05,14,42,26.60
2018,08,05,14,43,26.60
2018,08,05,14,44,26.60
2018,08,05,14,45,26.60
2018,08,05,14,46,26.50
2018,08,05,14,47,26.50
2018,08,05,14,48,26.40
2018,08,05,14,49,26.50
2018,08,05,14,50,26.60
2018,08,05,14,51,26.60
2018,08,05,14,52,26.70
2018,08,05,14,53,26.70
2018,08,05,14,54,26.80
2018,08,05,14,55,26.80
2018,08,05,14,56,26.80
2018,08,05,14,57,26.90
2018,08,05,14,58,26.90
2018,08,05,14,59,26.80
2018,08,05,15,00,26.80
2018,08,05,15,01,26.70
2018,08,05,15,02,26.60
2018,08,05,15,03,26.50
2018,08,05,15,04,26.40
2018,08,05,15,05,26.40
2018,08,05,15,06,26.30
2018,08,05,15,07,26.30
2018,08,05,15,08,26.30
2018,08,05,15,09,26.30
2018,08,05,15,10,26.30
2018,08,05,15,11,26.40
2018,08,05,15,12,26.40
2018,08,05,15,13,26.40
2018,08,05,15,14,26.30
2018,08,05,15,15,26.20
2018,08,05,15,16,26.00
2018,08,05,15,17,25.90
2018,08,05,15,18,25.90
2018,08,05,15,19,25.80
2018,08,05,15,20,25.90
2018,08,05,15,21,25.90
2018,08,05,15,22,25.90
2018,08,05,15,23,26.00
2018,08,05,15,24,26.10
2018,08,05,15,25,26.10
2018,08,05,15,26,26.10
2018,08,05,15,27,26.10
2018,08,05,15,28,26.10
2018,08,05,15,29,26.10
2018,08,05,15,30,26.00
2018,08,05,15,31,26.00
2018,08,05,15,32,25.90
2018,08,05,15,33,25.90
2018,08,05,15,34,25.90
2018,08,05,15,35,25.80
2018,08,05,15,36,25.80
2018,08,05,15,37,25.80
2018,08,05,15,38,25.90
2018,08,05,15,39,25.90
2018,08,05,15,40,25.90
2018,08,05,15,41,25.90
2018,08,05,15,42,26.00
2018,08,05,15,43,26.00
2018,08,05,15,44,26.10
2018,08,05,15,45,26.10
2018,08,05,15,46,26.10
2018,08,05,15,47,26.10
2018,08,05,15,48,26.20
2018,08,05,15,49,26.20
2018,08,05,15,50,26.10
2018,08,05,15,51,26.00
2018,08,05,15,52,26.00
2018,08,05,15,53,25.90
2018,08,05,15,54,25.90
2018,08,05,15,55,25.90
2018,08,05,15,56,25.90
2018,08,05,15,57,25.90
2018,08,05,15,58,25.90
2018,08,05,15,59,25.90
2018,08,05,16,00,25.90
2018,08,05,16,01,26.00
2018,08,05,16,02,26.10
2018,08,05,16,03,26.10
2018,08,05,16,04,26.10
2018,08,05,16,05,26.00
2018,08,05,16,06,26.00
2018,08,05,16,07,25.90
2018,08,05,16,08,25.80
2018,08,05,16,09,25.80
2018,08,05,16,10,25.80
2018,08,05,16,11,25.70
2018,08,05,16,12,25.70
2018,08,05,16,13,25.70
2018,08,05,16,14,25.70
2018,08,05,16,15,25.80
2018,08,05,16,16,25.90
2018,08,05,16,17,25.90
2018,08,05,16,18,25.90
2018,08,05,16,19,25.90
2018,08,05,16,20,25.90
2018,08,05,16,21,25.90
2018,08,05,16,22,25.90
2018,08,05,16,23,25.90
2018,08,05,16,24,25.90
2018,08,05,16,25,25.90
2018,08,05,16,26,25.90
2018,08,05,16,27,25.90
2018,08,05,16,28,25.90
2018,08,05,16,29,25.90
2018,08,05,16,30,26.00
2018,08,05,16,31,26.00
2018,08,05,16,32,26.10
2018,08,05,16,33,26.10
2018,08,05,16,34,26.20
2018,08,05,16,35,26.20
2018,08,05,16,36,26.20
2018,08,05,16,37,26.20
2018,08,05,16,38,26.20
2018,08,05,16,39,26.20
2018,08,05,16,40,26.20
2018,08,05,16,41,26.20
2018,08,05,16,42,26.20
2018,08,05,16,43,26.20
2018,08,05,16,44,26.20
2018,08,05,16,45,26.20
2018,08,05,16,46,26.10
2018,08,05,16,47,26.10
2018,08,05,16,48,26.10
2018,08,05,16,49,26.00
2018,08,05,16,50,26.00
2018,08,05,16,51,26.10
2018,08,05,16,52,26.00
2018,08,05,16,53,26.00
2018,08,05,16,54,26.00
2018,08,05,16,55,26.00
2018,08,05,16,56,26.00
2018,08,05,16,57,26.10
2018,08,05,16,58,26.10
2018,08,05,16,59,26.10
2018,08,05,17,00,26.10
2018,08,05,17,01,26.10
2018,08,05,17,02,26.20
2018,08,05,17,03,26.20
2018,08,05,17,04,26.30
2018,08,05,17,05,26.30
2018,08,05,17,06,26.30
2018,08,05,17,07,26.20
2018,08,05,17,08,26.20
2018,08,05,17,09,26.20
2018,08,05,17,10,26.20
2018,08,05,17,11,26.10
2018,08,05,17,12,26.10
2018,08,05,17,13,26.10
2018,08,05,17,14,26.00
2018,08,05,17,15,26.00
2018,08,05,17,16,25.90
2018,08,05,17,17,25.90
2018,08,05,17,18,25.90
2018,08,05,17,19,25.90